KENT RIDGE 1

Last updated on Sat Jul 05 2025 00:02:29 GMT+0000 (Coordinated Universal Time)

1 41167U 15077B 25184.77108890 .00003301 00000+0 11509-3 0 9994 2 41167 14.9812 331.3259 0009006 13.7040 346.3525 15.20102787528086
UTC large
Height (km)
Speed (km/s)
/
Latitude / Longitude
Inclination (degrees)
Orbital Period (minutes)
Azimuth
Elevation
Range (km)
Doppler Factor

Next 0 passes for location: London (51.5072 / 0.1276)

Sorry there are no passes over London.